| time (UTC) | temp F | wind direction | speed knots | gust knots | rain 1hr in | rain 24hr in | rain mn in | humidity % | barometer mb |
| 20260508200401 | 49 | 234 | 0.9 | 1.7 | 0.00 | 0.00 | 0.00 | 78 | 1021.3 |
| 20260508195901 | 49 | 234 | 0.9 | 1.7 | 0.00 | 0.00 | 0.00 | 78 | 1021.2 |
| 20260508195355 | 49 | 234 | 0.0 | 2.6 | 0.00 | 0.00 | 0.00 | 79 | 1021.1 |
| 20260508194854 | 49 | 234 | 0.9 | 2.6 | 0.00 | 0.00 | 0.00 | 79 | 1021.0 |
| 20260508194359 | 49 | 234 | 0.9 | 2.6 | 0.00 | 0.00 | 0.00 | 78 | 1021.0 |
| 20260508193854 | 49 | 234 | 0.9 | 3.5 | 0.00 | 0.00 | 0.00 | 79 | 1020.9 |
| 20260508193616 | 49 | 234 | 0.0 | 3.5 | 0.00 | 0.00 | 0.00 | 79 | 1020.9 |
| 20260508192854 | 49 | 234 | 0.0 | 1.7 | 0.00 | 0.00 | 0.00 | 80 | 1020.9 |
| 20260508192350 | 49 | 234 | 0.0 | 1.7 | 0.00 | 0.00 | 0.00 | 80 | 1020.7 |
| 20260508191850 | 49 | 234 | 0.0 | 1.7 | 0.00 | 0.00 | 0.00 | 80 | 1020.6 |
| 20260508191347 | 49 | 234 | 0.0 | 0.9 | 0.00 | 0.00 | 0.00 | 80 | 1020.6 |
| 20260508190850 | 49 | 234 | 0.0 | 1.7 | 0.00 | 0.00 | 0.00 | 81 | 1020.6 |
| 20260508190326 | 49 | 234 | 0.0 | 1.7 | 0.00 | 0.00 | 0.00 | 81 | 1020.6 |
| 20260508185829 | 49 | 234 | 0.0 | 1.7 | 0.00 | 0.00 | 0.00 | 81 | 1020.5 |
| 20260508185309 | 49 | 234 | 0.0 | 1.7 | 0.00 | 0.00 | 0.00 | 82 | 1020.5 |
| 20260508184811 | 49 | 234 | 0.0 | 1.7 | 0.00 | 0.00 | 0.00 | 82 | 1020.5 |
| 20260508184245 | 49 | 234 | 0.0 | 1.7 | 0.00 | 0.00 | 0.00 | 83 | 1020.4 |
| 20260508184009 | 48 | 234 | 0.9 | 2.6 | 0.00 | 0.00 | 0.00 | 84 | 1020.4 |
| 20260508183241 | 48 | 234 | 0.9 | 2.6 | 0.00 | 0.00 | 0.00 | 84 | 1020.3 |
| 20260508182739 | 47 | 234 | 0.9 | 3.5 | 0.00 | 0.00 | 0.00 | 86 | 1020.3 |
| 20260508182237 | 47 | 234 | 0.9 | 3.5 | 0.00 | 0.00 | 0.00 | 86 | 1020.3 |
| 20260508181735 | 47 | 123 | 0.9 | 2.6 | 0.00 | 0.00 | 0.00 | 87 | 1020.4 |
| 20260508181238 | 47 | 123 | 0.0 | 2.6 | 0.00 | 0.00 | 0.00 | 88 | 1020.3 |
| 20260508180732 | 47 | 123 | 0.9 | 1.7 | 0.00 | 0.00 | 0.00 | 88 | 1020.3 |
| 20260508180231 | 47 | 123 | 0.9 | 1.7 | 0.00 | 0.00 | 0.00 | 89 | 1020.2 |
| 20260508175731 | 47 | 123 | 0.0 | 1.7 | 0.00 | 0.00 | 0.00 | 89 | 1020.3 |
| 20260508175228 | 47 | 123 | 0.0 | 2.6 | 0.00 | 0.00 | 0.00 | 89 | 1020.4 |
| 20260508174944 | 47 | 123 | 0.0 | 2.6 | 0.00 | 0.00 | 0.00 | 89 | 1020.4 |
| 20260508174227 | 47 | 123 | 0.0 | 1.7 | 0.00 | 0.00 | 0.00 | 89 | 1020.3 |
| 20260508173728 | 47 | 123 | 0.9 | 1.7 | 0.00 | 0.00 | 0.00 | 89 | 1020.4 |
| 20260508173202 | 47 | 123 | 0.9 | 1.7 | 0.00 | 0.00 | 0.00 | 89 | 1020.3 |
| 20260508172636 | 47 | 123 | 0.0 | 1.7 | 0.00 | 0.00 | 0.00 | 89 | 1020.3 |
| 20260508172111 | 47 | 123 | 0.0 | 0.9 | 0.00 | 0.00 | 0.00 | 89 | 1020.3 |
| 20260508171545 | 47 | 123 | 0.0 | 0.9 | 0.00 | 0.00 | 0.00 | 89 | 1020.3 |
| 20260508171237 | 47 | 123 | 0.0 | 0.9 | 0.00 | 0.00 | 0.00 | 89 | 1020.2 |
| 20260508170452 | 47 | 123 | 0.0 | 0.9 | 0.00 | 0.00 | 0.00 | 88 | 1020.2 |
| 20260508165928 | 47 | 123 | 0.0 | 0.9 | 0.00 | 0.00 | 0.00 | 89 | 1020.2 |
| 20260508165402 | 47 | 123 | 0.0 | 0.9 | 0.00 | 0.00 | 0.00 | 89 | 1020.2 |
| 20260508164838 | 47 | 123 | 0.0 | 0.9 | 0.00 | 0.00 | 0.00 | 88 | 1020.1 |
| 20260508164310 | 47 | 123 | 0.0 | 0.0 | 0.00 | 0.00 | 0.00 | 88 | 1020.2 |
| 20260508164011 | 47 | 123 | 0.0 | 0.0 | 0.00 | 0.00 | 0.00 | 88 | 1020.2 |
| 20260508163218 | 47 | 123 | 0.0 | 0.0 | 0.00 | 0.00 | 0.00 | 88 | 1020.2 |
| 20260508162653 | 47 | 123 | 0.0 | 0.0 | 0.00 | 0.00 | 0.00 | 88 | 1020.2 |
| 20260508162153 | 47 | 123 | 0.0 | 0.0 | 0.00 | 0.00 | 0.00 | 88 | 1020.1 |
| 20260508161652 | 47 | 123 | 0.0 | 0.0 | 0.00 | 0.00 | 0.00 | 88 | 1020.0 |
| 20260508161152 | 47 | 123 | 0.0 | 0.0 | 0.00 | 0.00 | 0.00 | 88 | 1020.0 |
| 20260508160646 | 47 | 123 | 0.0 | 0.0 | 0.00 | 0.00 | 0.00 | 88 | 1020.1 |
| 20260508160146 | 47 | 123 | 0.0 | 0.0 | 0.00 | 0.00 | 0.00 | 88 | 1020.1 |
| 20260508155638 | 47 | 123 | 0.0 | 0.0 | 0.00 | 0.00 | 0.00 | 88 | 1020.1 |
| 20260508155137 | 47 | 123 | 0.0 | 0.0 | 0.00 | 0.00 | 0.00 | 88 | 1020.2 |
| 20260508154630 | 47 | 123 | 0.0 | 0.0 | 0.00 | 0.00 | 0.00 | 88 | 1020.1 |
| 20260508154130 | 47 | 123 | 0.0 | 0.0 | 0.00 | 0.00 | 0.00 | 88 | 1020.1 |
| 20260508153630 | 48 | 123 | 0.0 | 0.0 | 0.00 | 0.00 | 0.00 | 88 | 1020.1 |
| 20260508153129 | 48 | 123 | 0.0 | 0.0 | 0.00 | 0.00 | 0.00 | 88 | 1020.1 |
| 20260508152626 | 48 | 123 | 0.0 | 0.0 | 0.00 | 0.00 | 0.00 | 88 | 1020.1 |
| 20260508152126 | 48 | 123 | 0.0 | 0.0 | 0.00 | 0.00 | 0.00 | 88 | 1020.1 |
| 20260508151624 | 48 | 123 | 0.0 | 0.0 | 0.00 | 0.00 | 0.00 | 88 | 1020.0 |
| 20260508151122 | 48 | 123 | 0.0 | 1.7 | 0.00 | 0.00 | 0.00 | 88 | 1020.0 |
| 20260508150851 | 48 | 123 | 0.0 | 1.7 | 0.00 | 0.00 | 0.00 | 88 | 1020.0 |
| 20260508145754 | 48 | 123 | 0.9 | 2.6 | 0.00 | 0.00 | 0.00 | 88 | 1019.9 |
| 20260508145034 | 48 | 123 | 0.0 | 1.7 | 0.00 | 0.00 | 0.00 | 88 | 1020.0 |
| 20260508144756 | 48 | 123 | 0.0 | 1.7 | 0.00 | 0.00 | 0.00 | 88 | 1020.0 |
| 20260508144028 | 48 | 123 | 0.9 | 1.7 | 0.00 | 0.00 | 0.00 | 88 | 1019.9 |
| 20260508143528 | 48 | 123 | 0.9 | 1.7 | 0.00 | 0.00 | 0.00 | 88 | 1019.9 |
| 20260508143250 | 48 | 123 | 0.9 | 1.7 | 0.00 | 0.00 | 0.00 | 88 | 1020.0 |
| 20260508142526 | 48 | 123 | 0.0 | 1.7 | 0.00 | 0.00 | 0.00 | 87 | 1019.9 |
| 20260508142253 | 48 | 123 | 0.0 | 1.7 | 0.00 | 0.00 | 0.00 | 87 | 1019.9 |
| 20260508141535 | 48 | 123 | 0.0 | 1.7 | 0.00 | 0.00 | 0.00 | 87 | 1019.9 |
| 20260508141024 | 48 | 123 | 0.0 | 1.7 | 0.00 | 0.00 | 0.00 | 87 | 1019.9 |
| 20260508140522 | 48 | 123 | 0.0 | 1.7 | 0.00 | 0.00 | 0.00 | 87 | 1019.9 |
| 20260508140244 | 49 | 123 | 0.0 | 1.7 | 0.00 | 0.00 | 0.00 | 87 | 1019.9 |
| 20260508135957 | 49 | 123 | 0.0 | 0.9 | 0.00 | 0.00 | 0.00 | 87 | 1019.8 |
| 20260508135014 | 49 | 123 | 0.0 | 0.9 | 0.00 | 0.00 | 0.00 | 87 | 1019.8 |
| 20260508134514 | 49 | 123 | 0.0 | 0.9 | 0.00 | 0.00 | 0.00 | 87 | 1019.8 |
| 20260508134014 | 49 | 123 | 0.0 | 0.9 | 0.00 | 0.00 | 0.00 | 87 | 1019.7 |
| 20260508133517 | 49 | 123 | 0.0 | 0.9 | 0.00 | 0.00 | 0.00 | 87 | 1019.6 |
| 20260508132949 | 49 | 123 | 0.0 | 0.9 | 0.00 | 0.00 | 0.00 | 87 | 1019.5 |
| 20260508132909 | 49 | 123 | 0.0 | 0.9 | 0.00 | 0.00 | 0.00 | 87 | 1019.5 |
| 20260508131859 | 49 | 123 | 0.9 | 1.7 | 0.00 | 0.00 | 0.00 | 86 | 1019.5 |
| 20260508131337 | 49 | 123 | 0.9 | 1.7 | 0.00 | 0.00 | 0.00 | 87 | 1019.5 |
| 20260508130808 | 49 | 123 | 0.9 | 2.6 | 0.00 | 0.00 | 0.00 | 86 | 1019.5 |
| 20260508130244 | 50 | 123 | 0.9 | 2.6 | 0.00 | 0.00 | 0.00 | 86 | 1019.4 |
| 20260508125717 | 50 | 8 | 0.9 | 1.7 | 0.00 | 0.00 | 0.00 | 85 | 1019.4 |
| 20260508125151 | 50 | 8 | 0.0 | 1.7 | 0.00 | 0.00 | 0.00 | 85 | 1019.4 |
| 20260508124850 | 50 | 8 | 0.0 | 1.7 | 0.00 | 0.00 | 0.00 | 85 | 1019.4 |
| 20260508124055 | 50 | 8 | 0.9 | 1.7 | 0.00 | 0.00 | 0.00 | 85 | 1019.4 |
| 20260508123528 | 50 | 8 | 0.9 | 1.7 | 0.00 | 0.00 | 0.00 | 84 | 1019.4 |
| 20260508123014 | 51 | 8 | 0.9 | 1.7 | 0.00 | 0.00 | 0.00 | 84 | 1019.5 |
| 20260508122514 | 51 | 8 | 0.0 | 0.9 | 0.00 | 0.00 | 0.00 | 84 | 1019.5 |
| 20260508121958 | 51 | 8 | 0.0 | 0.9 | 0.00 | 0.00 | 0.00 | 84 | 1019.6 |
| 20260508121457 | 51 | 8 | 0.0 | 0.9 | 0.00 | 0.00 | 0.00 | 84 | 1019.5 |
| 20260508121005 | 51 | 8 | 0.0 | 0.9 | 0.00 | 0.00 | 0.00 | 83 | 1019.5 |
| 20260508120450 | 51 | 8 | 0.0 | 0.9 | 0.00 | 0.00 | 0.00 | 83 | 1019.5 |
| 20260508115948 | 51 | 8 | 0.0 | 0.0 | 0.00 | 0.00 | 0.00 | 83 | 1019.5 |
| 20260508115449 | 51 | 8 | 0.0 | 0.9 | 0.00 | 0.00 | 0.00 | 83 | 1019.6 |
| 20260508114946 | 51 | 8 | 0.0 | 0.9 | 0.00 | 0.00 | 0.00 | 82 | 1019.6 |
| 20260508114705 | 52 | 8 | 0.0 | 0.9 | 0.00 | 0.00 | 0.00 | 82 | 1019.7 |
| 20260508113943 | 52 | 8 | 0.0 | 0.9 | 0.00 | 0.00 | 0.00 | 82 | 1019.7 |
| 20260508113440 | 52 | 8 | 0.0 | 0.9 | 0.00 | 0.00 | 0.00 | 82 | 1019.6 |
| 20260508112938 | 52 | 8 | 0.0 | 0.9 | 0.00 | 0.00 | 0.00 | 82 | 1019.5 |
| 20260508112438 | 52 | 8 | 0.0 | 0.9 | 0.00 | 0.00 | 0.00 | 81 | 1019.5 |
| 20260508111939 | 52 | 8 | 0.0 | 0.9 | 0.00 | 0.00 | 0.00 | 81 | 1019.4 |
| 20260508111432 | 52 | 8 | 0.0 | 0.9 | 0.00 | 0.00 | 0.00 | 80 | 1019.3 |
| 20260508110930 | 53 | 8 | 0.0 | 0.9 | 0.00 | 0.00 | 0.00 | 80 | 1019.3 |
| 20260508110428 | 53 | 8 | 0.9 | 1.7 | 0.00 | 0.00 | 0.00 | 80 | 1019.3 |
| 20260508105929 | 53 | 8 | 0.9 | 1.7 | 0.00 | 0.00 | 0.00 | 80 | 1019.3 |
| 20260508105407 | 53 | 8 | 0.0 | 0.9 | 0.00 | 0.00 | 0.00 | 79 | 1019.3 |
| 20260508104909 | 53 | 8 | 0.0 | 0.9 | 0.00 | 0.00 | 0.00 | 78 | 1019.3 |
| 20260508104405 | 53 | 8 | 0.0 | 0.9 | 0.00 | 0.00 | 0.00 | 78 | 1019.2 |
| 20260508103905 | 54 | 8 | 0.0 | 0.9 | 0.00 | 0.00 | 0.00 | 77 | 1019.2 |
| 20260508103405 | 54 | 8 | 0.0 | 0.9 | 0.00 | 0.00 | 0.00 | 77 | 1019.2 |
| 20260508102906 | 54 | 8 | 0.0 | 0.9 | 0.00 | 0.00 | 0.00 | 77 | 1019.2 |
| 20260508102628 | 54 | 8 | 0.0 | 0.9 | 0.00 | 0.00 | 0.00 | 76 | 1019.2 |
| 20260508101906 | 54 | 8 | 0.0 | 1.7 | 0.00 | 0.00 | 0.00 | 76 | 1019.2 |
| 20260508101406 | 55 | 8 | 0.0 | 1.7 | 0.00 | 0.00 | 0.00 | 75 | 1019.2 |
| 20260508100903 | 55 | 8 | 0.0 | 0.9 | 0.00 | 0.00 | 0.00 | 75 | 1019.2 |
| 20260508100402 | 55 | 8 | 0.0 | 0.9 | 0.00 | 0.00 | 0.00 | 74 | 1019.2 |
| 20260508095859 | 55 | 8 | 0.0 | 0.9 | 0.00 | 0.00 | 0.00 | 74 | 1019.1 |
| 20260508095357 | 56 | 8 | 0.0 | 0.9 | 0.00 | 0.00 | 0.00 | 73 | 1019.0 |
| 20260508094859 | 56 | 8 | 0.0 | 0.9 | 0.00 | 0.00 | 0.00 | 73 | 1018.9 |
| 20260508094623 | 56 | 8 | 0.0 | 0.9 | 0.00 | 0.00 | 0.00 | 73 | 1019.0 |
| 20260508093858 | 56 | 8 | 0.0 | 0.9 | 0.00 | 0.00 | 0.00 | 72 | 1019.0 |
| 20260508093615 | 57 | 8 | 0.9 | 1.7 | 0.00 | 0.00 | 0.00 | 72 | 1019.0 |
| 20260508093500 | 56 | 8 | 0.9 | 1.7 | 0.00 | 0.00 | 0.00 | 72 | 1019.0 |
| 20260508092618 | 57 | 8 | 0.0 | 0.9 | 0.00 | 0.00 | 0.00 | 71 | 1018.9 |
| 20260508091830 | 57 | 8 | 0.0 | 0.9 | 0.00 | 0.00 | 0.00 | 70 | 1018.9 |
| 20260508091541 | 58 | 8 | 0.0 | 0.9 | 0.00 | 0.00 | 0.00 | 69 | 1018.8 |
| 20260508091033 | 58 | 8 | 0.0 | 0.9 | 0.00 | 0.00 | 0.00 | 68 | 1018.7 |
| 20260508090256 | 58 | 8 | 0.0 | 0.9 | 0.00 | 0.00 | 0.00 | 67 | 1018.5 |
| 20260508085756 | 58 | 8 | 0.0 | 0.9 | 0.00 | 0.00 | 0.00 | 67 | 1018.5 |
| 20260508085253 | 59 | 8 | 0.0 | 0.9 | 0.00 | 0.00 | 0.00 | 67 | 1018.5 |
| 20260508084511 | 59 | 8 | 0.0 | 0.9 | 0.00 | 0.00 | 0.00 | 66 | 1018.4 |
| 20260508083750 | 60 | 8 | 0.0 | 0.9 | 0.00 | 0.00 | 0.00 | 64 | 1018.3 |
| 20260508083250 | 60 | 8 | 0.0 | 0.9 | 0.00 | 0.00 | 0.00 | 63 | 1018.2 |
| 20260508082748 | 61 | 8 | 0.0 | 0.9 | 0.00 | 0.00 | 0.00 | 63 | 1018.2 |
| 20260508082242 | 61 | 8 | 0.0 | 0.9 | 0.00 | 0.00 | 0.00 | 63 | 1018.1 |
| 20260508081739 | 62 | 8 | 0.0 | 0.9 | 0.00 | 0.00 | 0.00 | 62 | 1018.0 |
| 20260508081238 | 62 | 8 | 0.0 | 0.9 | 0.00 | 0.00 | 0.00 | 60 | 1017.8 |
| 20260508081000 | 62 | 8 | 0.0 | 0.9 | 0.00 | 0.00 | 0.00 | 60 | 1017.7 |
| 20260508080235 | 63 | 8 | 0.0 | 0.9 | 0.00 | 0.00 | 0.00 | 59 | 1017.7 |
| 20260508075737 | 63 | 8 | 0.0 | 0.9 | 0.00 | 0.00 | 0.00 | 58 | 1017.6 |
| 20260508075237 | 64 | 8 | 0.0 | 0.0 | 0.00 | 0.00 | 0.00 | 57 | 1017.6 |
| 20260508074723 | 64 | 8 | 0.0 | 0.0 | 0.00 | 0.00 | 0.00 | 56 | 1017.6 |
| 20260508074224 | 64 | 8 | 0.0 | 0.9 | 0.00 | 0.00 | 0.00 | 55 | 1017.5 |
| 20260508073941 | 65 | 8 | 0.0 | 0.9 | 0.00 | 0.00 | 0.00 | 54 | 1017.5 |
| 20260508073222 | 65 | 8 | 0.0 | 0.9 | 0.00 | 0.00 | 0.00 | 53 | 1017.4 |
| 20260508072722 | 65 | 8 | 0.0 | 0.9 | 0.00 | 0.00 | 0.00 | 51 | 1017.4 |
| 20260508072220 | 66 | 8 | 0.0 | 1.7 | 0.00 | 0.00 | 0.00 | 51 | 1017.4 |
| 20260508071717 | 66 | 8 | 0.0 | 1.7 | 0.00 | 0.00 | 0.00 | 49 | 1017.3 |
| 20260508071654 | 66 | 8 | 0.0 | 1.7 | 0.00 | 0.00 | 0.00 | 47 | 1017.4 |
| 20260508070929 | 67 | 8 | 0.9 | 2.6 | 0.00 | 0.00 | 0.00 | 47 | 1017.3 |
| 20260508070208 | 67 | 8 | 0.9 | 2.6 | 0.00 | 0.00 | 0.00 | 46 | 1017.2 |
| 20260508065706 | 68 | 8 | 0.9 | 2.6 | 0.00 | 0.00 | 0.00 | 45 | 1017.2 |
| 20260508065207 | 68 | 8 | 0.9 | 3.5 | 0.00 | 0.00 | 0.00 | 45 | 1017.2 |
| 20260508064639 | 69 | 8 | 1.7 | 3.5 | 0.00 | 0.00 | 0.00 | 43 | 1017.1 |
| 20260508064140 | 69 | 10 | 1.7 | 3.5 | 0.00 | 0.00 | 0.00 | 42 | 1017.0 |
| 20260508063635 | 69 | 10 | 1.7 | 3.5 | 0.00 | 0.00 | 0.00 | 41 | 1017.0 |
| 20260508063134 | 70 | 8 | 1.7 | 3.5 | 0.00 | 0.00 | 0.00 | 40 | 1016.8 |
| 20260508062631 | 71 | 8 | 1.7 | 3.5 | 0.00 | 0.00 | 0.00 | 40 | 1016.8 |
| 20260508062131 | 71 | 357 | 1.7 | 4.3 | 0.00 | 0.00 | 0.00 | 38 | 1016.8 |
| 20260508061633 | 72 | 356 | 2.6 | 5.2 | 0.00 | 0.00 | 0.00 | 37 | 1016.8 |
| 20260508061410 | 72 | 339 | 2.6 | 5.2 | 0.00 | 0.00 | 0.00 | 35 | 1016.8 |
| 20260508060627 | 72 | 347 | 0.9 | 4.3 | 0.00 | 0.00 | 0.00 | 35 | 1016.8 |
| 20260508060126 | 72 | 2 | 1.7 | 3.5 | 0.00 | 0.00 | 0.00 | 36 | 1016.8 |
| 20260508055620 | 73 | 2 | 1.7 | 3.5 | 0.00 | 0.00 | 0.00 | 35 | 1016.8 |
| 20260508055119 | 73 | 358 | 0.9 | 2.6 | 0.00 | 0.00 | 0.00 | 36 | 1016.7 |
| 20260508054616 | 74 | 22 | 1.7 | 4.3 | 0.00 | 0.00 | 0.00 | 33 | 1016.8 |
| 20260508054113 | 74 | 338 | 1.7 | 5.2 | 0.00 | 0.00 | 0.00 | 28 | 1016.8 |
| 20260508053619 | 74 | 316 | 1.7 | 5.2 | 0.00 | 0.00 | 0.00 | 29 | 1016.8 |
| 20260508053109 | 74 | 225 | 0.9 | 4.3 | 0.00 | 0.00 | 0.00 | 29 | 1016.9 |
| 20260508052623 | 75 | 292 | 0.9 | 4.3 | 0.00 | 0.00 | 0.00 | 29 | 1016.9 |
| 20260508052058 | 75 | 294 | 0.9 | 4.3 | 0.00 | 0.00 | 0.00 | 27 | 1016.9 |
| 20260508051345 | 75 | 310 | 0.9 | 5.2 | 0.00 | 0.00 | 0.00 | 27 | 1016.9 |
| 20260508050808 | 75 | 245 | 0.9 | 5.2 | 0.00 | 0.00 | 0.00 | 27 | 1016.9 |
| 20260508050535 | 75 | 340 | 1.7 | 5.2 | 0.00 | 0.00 | 0.00 | 27 | 1017.0 |
| 20260508045803 | 75 | 233 | 0.9 | 4.3 | 0.00 | 0.00 | 0.00 | 26 | 1017.1 |
| 20260508045301 | 75 | 312 | 0.9 | 4.3 | 0.00 | 0.00 | 0.00 | 27 | 1017.2 |
| 20260508044759 | 75 | 284 | 0.9 | 4.3 | 0.00 | 0.00 | 0.00 | 28 | 1017.3 |
| 20260508044302 | 75 | 294 | 1.7 | 3.5 | 0.00 | 0.00 | 0.00 | 26 | 1017.2 |
| 20260508044019 | 74 | 240 | 1.7 | 4.3 | 0.00 | 0.00 | 0.00 | 26 | 1017.1 |
| 20260508043247 | 74 | 260 | 0.9 | 7.8 | 0.00 | 0.00 | 0.00 | 27 | 1017.2 |
| 20260508042719 | 74 | 308 | 1.7 | 7.8 | 0.00 | 0.00 | 0.00 | 28 | 1017.2 |
| 20260508042200 | 74 | 247 | 2.6 | 8.7 | 0.00 | 0.00 | 0.00 | 27 | 1017.2 |
| 20260508041702 | 74 | 229 | 2.6 | 8.7 | 0.00 | 0.00 | 0.00 | 25 | 1017.2 |
| 20260508041131 | 74 | 224 | 1.7 | 7.0 | 0.00 | 0.00 | 0.00 | 24 | 1017.2 |
| 20260508040607 | 74 | 240 | 1.7 | 4.3 | 0.00 | 0.00 | 0.00 | 28 | 1017.3 |
| 20260508040052 | 74 | 240 | 1.7 | 4.3 | 0.00 | 0.00 | 0.00 | 27 | 1017.4 |
| 20260508035517 | 74 | 221 | 1.7 | 6.1 | 0.00 | 0.00 | 0.00 | 28 | 1017.4 |
| 20260508034944 | 74 | 246 | 1.7 | 6.1 | 0.00 | 0.00 | 0.00 | 28 | 1017.5 |
| 20260508034416 | 74 | 281 | 1.7 | 5.2 | 0.00 | 0.00 | 0.00 | 28 | 1017.6 |
| 20260508033851 | 74 | 242 | 1.7 | 4.3 | 0.00 | 0.00 | 0.00 | 29 | 1017.7 |
| 20260508033326 | 74 | 209 | 1.7 | 6.1 | 0.00 | 0.00 | 0.00 | 27 | 1017.7 |
| 20260508032801 | 74 | 314 | 1.7 | 5.2 | 0.00 | 0.00 | 0.00 | 28 | 1017.8 |
| 20260508032235 | 73 | 308 | 1.7 | 5.2 | 0.00 | 0.00 | 0.00 | 29 | 1017.8 |
| 20260508031725 | 73 | 216 | 1.7 | 6.1 | 0.00 | 0.00 | 0.00 | 27 | 1018.0 |
| 20260508031224 | 73 | 233 | 2.6 | 6.1 | 0.00 | 0.00 | 0.00 | 26 | 1018.1 |
| 20260508030724 | 73 | 308 | 2.6 | 7.8 | 0.00 | 0.00 | 0.00 | 28 | 1018.0 |
| 20260508030448 | 73 | 302 | 2.6 | 7.8 | 0.00 | 0.00 | 0.00 | 29 | 1018.0 |
| 20260508025728 | 73 | 293 | 2.6 | 7.0 | 0.00 | 0.00 | 0.00 | 30 | 1018.0 |
| 20260508025218 | 73 | 324 | 3.5 | 7.0 | 0.00 | 0.00 | 0.00 | 26 | 1018.1 |
| 20260508024717 | 73 | 28 | 2.6 | 7.0 | 0.00 | 0.00 | 0.00 | 26 | 1018.1 |
| 20260508024211 | 73 | 241 | 1.7 | 7.0 | 0.00 | 0.00 | 0.00 | 29 | 1018.2 |
| 20260508023709 | 73 | 237 | 1.7 | 7.0 | 0.00 | 0.00 | 0.00 | 31 | 1018.3 |
| 20260508023210 | 73 | 239 | 2.6 | 7.0 | 0.00 | 0.00 | 0.00 | 27 | 1018.4 |
| 20260508022709 | 73 | 311 | 1.7 | 6.1 | 0.00 | 0.00 | 0.00 | 28 | 1018.4 |
| 20260508022209 | 72 | 299 | 1.7 | 6.1 | 0.00 | 0.00 | 0.00 | 29 | 1018.5 |
| 20260508021711 | 72 | 249 | 1.7 | 6.1 | 0.00 | 0.00 | 0.00 | 29 | 1018.7 |
| 20260508021147 | 72 | 240 | 2.6 | 5.2 | 0.00 | 0.00 | 0.00 | 29 | 1018.9 |
| 20260508020619 | 72 | 218 | 1.7 | 5.2 | 0.00 | 0.00 | 0.00 | 30 | 1018.9 |
| 20260508020100 | 72 | 256 | 1.7 | 4.3 | 0.00 | 0.00 | 0.00 | 30 | 1019.1 |
| 20260508015520 | 72 | 314 | 1.7 | 4.3 | 0.00 | 0.00 | 0.00 | 31 | 1019.1 |
| 20260508014952 | 71 | 308 | 2.6 | 7.0 | 0.00 | 0.00 | 0.00 | 32 | 1019.2 |
| 20260508014435 | 71 | 335 | 2.6 | 7.0 | 0.00 | 0.00 | 0.00 | 31 | 1019.3 |
| 20260508013936 | 71 | 310 | 1.7 | 5.2 | 0.00 | 0.00 | 0.00 | 33 | 1019.5 |
| 20260508013412 | 71 | 310 | 1.7 | 5.2 | 0.00 | 0.00 | 0.00 | 31 | 1019.5 |
| 20260508013337 | 70 | 314 | 1.7 | 4.3 | 0.00 | 0.00 | 0.00 | 33 | 1019.6 |
| 20260508012319 | 70 | 324 | 1.7 | 4.3 | 0.00 | 0.00 | 0.00 | 36 | 1019.8 |
| 20260508011751 | 70 | 193 | 1.7 | 4.3 | 0.00 | 0.00 | 0.00 | 33 | 1019.8 |
| 20260508011222 | 70 | 311 | 1.7 | 4.3 | 0.00 | 0.00 | 0.00 | 35 | 1019.8 |
| 20260508010702 | 69 | 249 | 0.9 | 4.3 | 0.00 | 0.00 | 0.00 | 33 | 1019.7 |
| 20260508010205 | 69 | 294 | 0.9 | 4.3 | 0.00 | 0.00 | 0.00 | 34 | 1019.8 |
| 20260508005636 | 69 | 218 | 1.7 | 4.3 | 0.00 | 0.00 | 0.00 | 34 | 1020.0 |
| 20260508005110 | 68 | 334 | 1.7 | 4.3 | 0.00 | 0.00 | 0.00 | 35 | 1020.1 |
| 20260508004609 | 68 | 242 | 1.7 | 6.1 | 0.00 | 0.00 | 0.00 | 34 | 1020.2 |
| 20260508004105 | 68 | 222 | 1.7 | 6.1 | 0.00 | 0.00 | 0.00 | 34 | 1020.3 |
| 20260508003603 | 68 | 318 | 1.7 | 5.2 | 0.00 | 0.00 | 0.00 | 36 | 1020.3 |
| 20260508003103 | 68 | 243 | 1.7 | 5.2 | 0.00 | 0.00 | 0.00 | 35 | 1020.4 |
| 20260508002603 | 68 | 220 | 1.7 | 4.3 | 0.00 | 0.00 | 0.00 | 33 | 1020.5 |
| 20260508002101 | 68 | 320 | 0.9 | 4.3 | 0.00 | 0.00 | 0.00 | 35 | 1020.6 |
| 20260508001819 | 67 | 310 | 0.9 | 4.3 | 0.00 | 0.00 | 0.00 | 35 | 1020.6 |
| 20260508001057 | 67 | 285 | 1.7 | 4.3 | 0.00 | 0.00 | 0.00 | 38 | 1020.6 |
| 20260508000557 | 67 | 310 | 1.7 | 4.3 | 0.00 | 0.00 | 0.00 | 38 | 1020.8 |
| 20260508000106 | 66 | 226 | 1.7 | 3.5 | 0.00 | 0.00 | 0.00 | 39 | 1020.8 |
| 20260508000100 | 66 | 204 | 0.9 | 3.5 | 0.00 | 0.00 | 0.00 | 36 | 1020.8 |
| 20260507235055 | 65 | 270 | 1.7 | 7.0 | 0.00 | 0.00 | 0.00 | 40 | 1020.8 |
| 20260507234549 | 65 | 238 | 1.7 | 7.0 | 0.00 | 0.00 | 0.00 | 37 | 1021.0 |
| 20260507234048 | 65 | 236 | 2.6 | 7.0 | 0.00 | 0.00 | 0.00 | 39 | 1021.0 |
| 20260507233546 | 65 | 237 | 2.6 | 7.8 | 0.00 | 0.00 | 0.00 | 40 | 1021.0 |
| 20260507233047 | 64 | 247 | 1.7 | 7.8 | 0.00 | 0.00 | 0.00 | 39 | 1021.1 |
| 20260507232543 | 64 | 238 | 0.9 | 4.3 | 0.00 | 0.00 | 0.00 | 40 | 1021.0 |
| 20260507232043 | 64 | 232 | 1.7 | 7.0 | 0.00 | 0.00 | 0.00 | 43 | 1020.9 |
| 20260507231543 | 63 | 231 | 2.6 | 7.8 | 0.00 | 0.00 | 0.00 | 41 | 1021.0 |
| 20260507231043 | 63 | 198 | 1.7 | 7.8 | 0.00 | 0.00 | 0.00 | 42 | 1020.9 |
| 20260507230543 | 63 | 166 | 0.9 | 4.3 | 0.00 | 0.00 | 0.00 | 44 | 1020.8 |
| 20260507230053 | 62 | 158 | 0.9 | 4.3 | 0.00 | 0.00 | 0.00 | 45 | 1020.8 |
| 20260507225539 | 62 | 228 | 1.7 | 4.3 | 0.00 | 0.00 | 0.00 | 48 | 1020.8 |
| 20260507225038 | 61 | 250 | 1.7 | 4.3 | 0.00 | 0.00 | 0.00 | 49 | 1020.8 |
| 20260507224800 | 61 | 249 | 0.9 | 4.3 | 0.00 | 0.00 | 0.00 | 50 | 1020.9 |
| 20260507224251 | 60 | 248 | 0.9 | 4.3 | 0.00 | 0.00 | 0.00 | 51 | 1020.8 |
| 20260507223752 | 60 | 248 | 2.6 | 7.8 | 0.00 | 0.00 | 0.00 | 51 | 1020.9 |
| 20260507223031 | 59 | 240 | 2.6 | 7.8 | 0.00 | 0.00 | 0.00 | 51 | 1020.8 |
| 20260507222751 | 59 | 237 | 1.7 | 7.0 | 0.00 | 0.00 | 0.00 | 53 | 1020.8 |
| 20260507222234 | 58 | 190 | 1.7 | 7.0 | 0.00 | 0.00 | 0.00 | 54 | 1020.7 |
| 20260507221514 | 58 | 237 | 1.7 | 7.0 | 0.00 | 0.00 | 0.00 | 56 | 1020.6 |
| 20260507220956 | 57 | 249 | 1.7 | 6.1 | 0.00 | 0.00 | 0.00 | 56 | 1020.6 |
| 20260507220458 | 57 | 244 | 1.7 | 6.1 | 0.00 | 0.00 | 0.00 | 58 | 1020.4 |
| 20260507215954 | 56 | 239 | 0.9 | 5.2 | 0.00 | 0.00 | 0.00 | 60 | 1020.4 |
| 20260507215721 | 56 | 239 | 0.9 | 5.2 | 0.00 | 0.00 | 0.00 | 60 | 1020.5 |
| 20260507214954 | 55 | 240 | 1.7 | 4.3 | 0.00 | 0.00 | 0.00 | 61 | 1020.3 |
| 20260507214452 | 55 | 249 | 1.7 | 5.2 | 0.00 | 0.00 | 0.00 | 62 | 1020.3 |
| 20260507213953 | 54 | 237 | 1.7 | 5.2 | 0.00 | 0.00 | 0.00 | 63 | 1020.3 |
| 20260507213452 | 54 | 222 | 1.7 | 4.3 | 0.00 | 0.00 | 0.00 | 64 | 1020.3 |
| 20260507213444 | 53 | 245 | 1.7 | 5.2 | 0.00 | 0.00 | 0.00 | 65 | 1020.3 |
| 20260507212453 | 53 | 247 | 1.7 | 5.2 | 0.00 | 0.00 | 0.00 | 65 | 1020.3 |
| 20260507211953 | 53 | 247 | 1.7 | 5.2 | 0.00 | 0.00 | 0.00 | 65 | 1020.2 |
| 20260507211453 | 52 | 238 | 1.7 | 4.3 | 0.00 | 0.00 | 0.00 | 65 | 1020.2 |
| 20260507210954 | 52 | 210 | 1.7 | 6.1 | 0.00 | 0.00 | 0.00 | 65 | 1020.0 |
| 20260507210447 | 52 | 251 | 1.7 | 6.1 | 0.00 | 0.00 | 0.00 | 66 | 1020.1 |
| 20260507210209 | 52 | 166 | 1.7 | 6.1 | 0.00 | 0.00 | 0.00 | 66 | 1020.0 |
| 20260507205704 | 52 | 296 | 1.7 | 6.1 | 0.00 | 0.00 | 0.00 | 66 | 1019.9 |
| 20260507205206 | 52 | 242 | 0.9 | 5.2 | 0.00 | 0.00 | 0.00 | 67 | 1019.7 |
| 20260507204443 | 52 | 257 | 0.9 | 4.3 | 0.00 | 0.00 | 0.00 | 67 | 1019.7 |
| 20260507203942 | 52 | 233 | 0.9 | 3.5 | 0.00 | 0.00 | 0.00 | 68 | 1019.7 |
| 20260507203659 | 52 | 258 | 0.9 | 5.2 | 0.00 | 0.00 | 0.00 | 68 | 1019.7 |
| 20260507202936 | 52 | 258 | 0.9 | 5.2 | 0.00 | 0.00 | 0.00 | 68 | 1019.7 |
| 20260507202435 | 52 | 237 | 0.9 | 4.3 | 0.00 | 0.00 | 0.00 | 67 | 1019.6 |
| 20260507201933 | 52 | 206 | 1.7 | 6.1 | 0.00 | 0.00 | 0.00 | 67 | 1019.7 |
| 20260507201432 | 52 | 206 | 1.7 | 6.1 | 0.00 | 0.00 | 0.00 | 67 | 1019.5 |
| 20260507200925 | 52 | 224 | 1.7 | 5.2 | 0.00 | 0.00 | 0.00 | 67 | 1019.6 |